TimeCDT,TemperatureF,Dew PointF,Humidity,Sea Level PressureIn,VisibilityMPH,Wind Direction,Wind SpeedMPH,Gust SpeedMPH,PrecipitationIn,Events,Conditions,WindDirDegrees,DateUTC
12:15 AM,57.9,45.3,63,30.29,10.0,Calm,Calm,-,N/A,,Scattered Clouds,0,2014-04-18 05:15:00
12:35 AM,57.9,45.3,63,30.30,10.0,SE,3.5,-,N/A,,Overcast,140,2014-04-18 05:35:00
12:55 AM,58.1,45.0,62,30.30,10.0,ESE,3.5,-,N/A,,Overcast,120,2014-04-18 05:55:00
1:15 AM,57.9,44.8,62,30.29,10.0,Calm,Calm,-,N/A,,Overcast,0,2014-04-18 06:15:00
1:35 AM,57.7,44.8,62,30.28,10.0,Calm,Calm,-,N/A,,Mostly Cloudy,0,2014-04-18 06:35:00
1:55 AM,57.4,44.6,62,30.27,10.0,ESE,3.5,-,N/A,,Mostly Cloudy,120,2014-04-18 06:55:00
2:15 AM,57.2,44.6,63,30.27,10.0,ESE,3.5,-,N/A,,Scattered Clouds,120,2014-04-18 07:15:00
2:35 AM,56.7,44.2,63,30.27,10.0,Calm,Calm,-,N/A,,Scattered Clouds,0,2014-04-18 07:35:00
2:55 AM,56.7,44.1,63,30.27,10.0,ESE,4.6,-,N/A,,Overcast,110,2014-04-18 07:55:00
3:15 AM,56.5,44.1,63,30.26,10.0,ESE,4.6,-,N/A,,Mostly Cloudy,110,2014-04-18 08:15:00
3:35 AM,56.3,43.9,63,30.26,10.0,ESE,5.8,-,N/A,,Mostly Cloudy,110,2014-04-18 08:35:00
3:55 AM,56.3,43.9,63,30.25,10.0,ESE,4.6,-,N/A,,Mostly Cloudy,110,2014-04-18 08:55:00
4:15 AM,56.1,43.7,63,30.25,10.0,ESE,3.5,-,N/A,,Mostly Cloudy,110,2014-04-18 09:15:00
4:35 AM,55.6,43.3,63,30.25,10.0,East,4.6,-,N/A,,Scattered Clouds,100,2014-04-18 09:35:00
4:55 AM,55.4,42.6,62,30.25,10.0,East,5.8,-,N/A,,Scattered Clouds,100,2014-04-18 09:55:00
5:15 AM,55.4,41.9,60,30.25,10.0,East,4.6,-,N/A,,Mostly Cloudy,90,2014-04-18 10:15:00
5:35 AM,55.2,41.4,60,30.25,10.0,East,5.8,-,N/A,,Mostly Cloudy,80,2014-04-18 10:35:00
5:55 AM,55.0,40.8,59,30.25,10.0,East,4.6,-,N/A,,Mostly Cloudy,80,2014-04-18 10:55:00
6:15 AM,55.2,40.5,58,30.25,10.0,East,5.8,-,N/A,,Mostly Cloudy,90,2014-04-18 11:15:00
6:35 AM,55.4,40.3,57,30.26,10.0,East,8.1,-,N/A,,Overcast,90,2014-04-18 11:35:00
6:55 AM,55.0,41.0,59,30.28,10.0,East,5.8,-,N/A,Rain,Rain,100,2014-04-18 11:55:00
7:15 AM,52.5,43.5,71,30.28,7.0,East,4.6,-,0.02,Rain,Light Rain,90,2014-04-18 12:15:00
7:35 AM,52.9,43.0,69,30.28,10.0,East,6.9,-,0.02,,Overcast,90,2014-04-18 12:35:00
7:55 AM,53.2,42.6,67,30.29,10.0,East,5.8,-,0.02,Rain,Light Rain,90,2014-04-18 12:55:00
8:15 AM,51.8,43.9,74,30.29,7.0,East,5.8,-,0.01,Rain,Rain,90,2014-04-18 13:15:00
8:35 AM,50.4,44.8,81,30.29,10.0,ESE,5.8,-,0.02,Rain,Light Rain,110,2014-04-18 13:35:00
8:55 AM,49.8,45.3,84,30.29,10.0,ESE,9.2,-,0.04,Rain,Light Rain,120,2014-04-18 13:55:00
9:15 AM,49.6,45.5,86,30.28,10.0,ESE,9.2,16.1,0.01,Rain,Light Rain,110,2014-04-18 14:15:00
9:35 AM,49.6,46.0,87,30.30,10.0,NNE,3.5,-,0.01,Rain,Light Rain,20,2014-04-18 14:35:00
9:55 AM,50.0,46.8,89,30.30,10.0,ENE,4.6,-,0.02,Rain,Light Rain,60,2014-04-18 14:55:00
10:15 AM,50.7,47.1,87,30.30,10.0,East,3.5,-,N/A,,Scattered Clouds,80,2014-04-18 15:15:00
10:35 AM,51.3,46.6,84,30.29,10.0,East,4.6,-,N/A,Rain,Light Rain,80,2014-04-18 15:35:00
11:15 AM,52.0,46.9,83,30.28,10.0,East,3.5,-,0.01,Rain,Light Rain,100,2014-04-18 16:15:00
11:35 AM,52.9,47.3,81,30.28,10.0,East,4.6,-,0.01,,Light Drizzle,80,2014-04-18 16:35:00
11:55 AM,53.8,47.1,78,30.27,10.0,East,5.8,-,0.01,,Clear,90,2014-04-18 16:55:00
12:15 PM,54.9,46.6,74,30.26,10.0,ESE,4.6,-,N/A,,Clear,120,2014-04-18 17:15:00
12:35 PM,55.6,46.2,71,30.26,10.0,ENE,8.1,-,N/A,,Clear,70,2014-04-18 17:35:00
12:55 PM,56.5,45.9,68,30.25,10.0,ENE,6.9,-,N/A,,Clear,60,2014-04-18 17:55:00
1:15 PM,57.4,46.2,66,30.25,10.0,NE,5.8,-,N/A,,Clear,50,2014-04-18 18:15:00
1:35 PM,57.9,45.5,63,30.25,10.0,NE,6.9,-,N/A,,Clear,40,2014-04-18 18:35:00
1:55 PM,58.3,45.7,63,30.24,10.0,NE,8.1,-,N/A,,Clear,40,2014-04-18 18:55:00
2:15 PM,58.5,45.5,62,30.23,10.0,NE,6.9,-,N/A,,Clear,40,2014-04-18 19:15:00
2:35 PM,59.0,45.3,60,30.22,10.0,NE,8.1,-,N/A,,Clear,50,2014-04-18 19:35:00
2:55 PM,59.4,45.5,60,30.20,10.0,NE,11.5,-,N/A,,Clear,40,2014-04-18 19:55:00
3:15 PM,59.4,45.3,60,30.19,10.0,NNE,8.1,-,N/A,,Clear,30,2014-04-18 20:15:00
3:35 PM,59.5,45.5,60,30.19,10.0,NE,10.4,-,N/A,,Clear,40,2014-04-18 20:35:00
3:55 PM,59.7,45.5,59,30.19,10.0,NNE,8.1,-,N/A,,Clear,30,2014-04-18 20:55:00
4:15 PM,59.7,45.7,60,30.19,10.0,NE,3.5,-,N/A,,Clear,50,2014-04-18 21:15:00
4:35 PM,59.7,45.9,60,30.19,10.0,Calm,Calm,-,N/A,,Clear,0,2014-04-18 21:35:00
4:55 PM,59.5,46.0,61,30.19,10.0,Calm,Calm,-,N/A,,Clear,0,2014-04-18 21:55:00
5:15 PM,59.9,46.6,61,30.19,10.0,Calm,Calm,-,N/A,,Clear,0,2014-04-18 22:15:00
5:35 PM,59.4,46.8,63,30.19,10.0,Calm,Calm,-,N/A,,Scattered Clouds,0,2014-04-18 22:35:00
5:55 PM,59.0,47.1,65,30.19,10.0,Calm,Calm,-,N/A,,Mostly Cloudy,0,2014-04-18 22:55:00
6:15 PM,58.3,48.9,71,30.19,10.0,Calm,Calm,-,N/A,,Overcast,0,2014-04-18 23:15:00
6:35 PM,57.6,50.2,76,30.19,10.0,Calm,Calm,-,N/A,,Overcast,0,2014-04-18 23:35:00
6:55 PM,57.4,49.8,76,30.19,10.0,Calm,Calm,-,N/A,,Overcast,0,2014-04-18 23:55:00
7:15 PM,56.8,50.4,79,30.19,10.0,Calm,Calm,-,N/A,,Overcast,0,2014-04-19 00:15:00
7:35 PM,56.1,51.4,84,30.18,10.0,Calm,Calm,-,N/A,,Overcast,0,2014-04-19 00:35:00
7:55 PM,54.9,51.1,87,30.18,10.0,Calm,Calm,-,N/A,,Mostly Cloudy,0,2014-04-19 00:55:00
8:15 PM,54.0,50.4,88,30.18,10.0,Calm,Calm,-,N/A,,Scattered Clouds,0,2014-04-19 01:15:00
8:35 PM,53.1,49.8,89,30.18,7.0,Calm,Calm,-,N/A,,Clear,0,2014-04-19 01:35:00
8:55 PM,52.5,49.3,89,30.18,10.0,Calm,Calm,-,N/A,,Clear,0,2014-04-19 01:55:00
9:15 PM,52.2,49.1,89,30.19,10.0,Calm,Calm,-,N/A,,Clear,0,2014-04-19 02:15:00
9:35 PM,51.3,47.7,87,30.19,10.0,Calm,Calm,-,N/A,,Clear,0,2014-04-19 02:35:00
9:55 PM,51.1,47.5,87,30.18,10.0,Calm,Calm,-,N/A,,Clear,0,2014-04-19 02:55:00
10:15 PM,50.7,47.8,90,30.19,10.0,Calm,Calm,-,N/A,,Clear,0,2014-04-19 03:15:00
10:35 PM,50.2,47.8,92,30.18,10.0,Calm,Calm,-,N/A,,Clear,0,2014-04-19 03:35:00
10:55 PM,50.4,48.0,92,30.19,10.0,Calm,Calm,-,N/A,,Clear,0,2014-04-19 03:55:00
11:15 PM,50.0,47.5,91,30.18,10.0,Calm,Calm,-,N/A,,Clear,0,2014-04-19 04:15:00
11:35 PM,49.1,47.1,93,30.18,10.0,Calm,Calm,-,N/A,,Clear,0,2014-04-19 04:35:00
11:55 PM,48.6,46.8,93,30.17,10.0,Calm,Calm,-,N/A,,Clear,0,2014-04-19 04:55:00